owner,sensor,date,latitude,longitude,vertical_datum,sea_water_temperature,qcFlag 
TCOON,ioos:station:TCOON:127:1,2019-03-01T02:36:00Z,28.2598,-96.7737,0.0,16.2,11111222 
TCOON,ioos:station:TCOON:127:1,2019-03-01T03:24:00Z,28.2598,-96.7737,0.0,16.1,11111222 
TCOON,ioos:station:TCOON:127:1,2019-03-01T04:24:00Z,28.2598,-96.7737,0.0,16.0,11111222 
TCOON,ioos:station:TCOON:127:1,2019-03-01T05:24:00Z,28.2598,-96.7737,0.0,15.8,11111222 
TCOON,ioos:station:TCOON:127:1,2019-03-01T06:24:00Z,28.2598,-96.7737,0.0,15.7,11111222 
TCOON,ioos:station:TCOON:127:1,2019-03-01T07:24:00Z,28.2598,-96.7737,0.0,15.7,11111222 
TCOON,ioos:station:TCOON:127:1,2019-03-01T08:24:00Z,28.2598,-96.7737,0.0,15.6,11111222 
TCOON,ioos:station:TCOON:127:1,2019-03-01T09:24:00Z,28.2598,-96.7737,0.0,15.5,11111222 
TCOON,ioos:station:TCOON:127:1,2019-03-01T10:24:00Z,28.2598,-96.7737,0.0,15.4,11111222 
TCOON,ioos:station:TCOON:127:1,2019-03-01T11:24:00Z,28.2598,-96.7737,0.0,15.4,11111222 
TCOON,ioos:station:TCOON:127:1,2019-03-01T12:24:00Z,28.2598,-96.7737,0.0,15.3,11111222 
TCOON,ioos:station:TCOON:127:1,2019-03-01T13:24:00Z,28.2598,-96.7737,0.0,15.3,11111222 
TCOON,ioos:station:TCOON:127:1,2019-03-01T14:24:00Z,28.2598,-96.7737,0.0,15.3,11111222 
TCOON,ioos:station:TCOON:127:1,2019-03-01T15:36:00Z,28.2598,-96.7737,0.0,15.3,11111222 
TCOON,ioos:station:TCOON:127:1,2019-03-01T16:24:00Z,28.2598,-96.7737,0.0,15.3,11111222 
TCOON,ioos:station:TCOON:127:1,2019-03-01T17:24:00Z,28.2598,-96.7737,0.0,15.3,11111222 
TCOON,ioos:station:TCOON:127:1,2019-03-01T18:24:00Z,28.2598,-96.7737,0.0,15.3,11111222 
TCOON,ioos:station:TCOON:127:1,2019-03-01T19:24:00Z,28.2598,-96.7737,0.0,15.2,11111222 
TCOON,ioos:station:TCOON:127:1,2019-03-01T20:24:00Z,28.2598,-96.7737,0.0,15.2,11111222 
TCOON,ioos:station:TCOON:127:1,2019-03-01T21:24:00Z,28.2598,-96.7737,0.0,15.3,11111222 
TCOON,ioos:station:TCOON:127:1,2019-03-01T22:24:00Z,28.2598,-96.7737,0.0,15.4,11111222 
TCOON,ioos:station:TCOON:127:1,2019-03-01T23:24:00Z,28.2598,-96.7737,0.0,15.4,11111222 
TCOON,ioos:station:TCOON:127:1,2019-03-02T00:24:00Z,28.2598,-96.7737,0.0,15.4,11111222 
TCOON,ioos:station:TCOON:127:1,2019-03-02T01:24:00Z,28.2598,-96.7737,0.0,15.4,11111222 
TCOON,ioos:station:TCOON:127:1,2019-03-02T02:24:00Z,28.2598,-96.7737,0.0,15.4,11111222 
TCOON,ioos:station:TCOON:127:1,2019-03-02T03:24:00Z,28.2598,-96.7737,0.0,15.4,11111222 
TCOON,ioos:station:TCOON:127:1,2019-03-02T04:24:00Z,28.2598,-96.7737,0.0,15.5,11111222 
TCOON,ioos:station:TCOON:127:1,2019-03-02T05:24:00Z,28.2598,-96.7737,0.0,15.5,11111222 
TCOON,ioos:station:TCOON:127:1,2019-03-02T06:24:00Z,28.2598,-96.7737,0.0,15.6,11111222 
TCOON,ioos:station:TCOON:127:1,2019-03-02T07:24:00Z,28.2598,-96.7737,0.0,15.5,11111222 
TCOON,ioos:station:TCOON:127:1,2019-03-02T08:24:00Z,28.2598,-96.7737,0.0,15.6,11111222 
TCOON,ioos:station:TCOON:127:1,2019-03-02T09:24:00Z,28.2598,-96.7737,0.0,15.7,11111222 
TCOON,ioos:station:TCOON:127:1,2019-03-02T10:24:00Z,28.2598,-96.7737,0.0,15.8,11111222 
TCOON,ioos:station:TCOON:127:1,2019-03-02T11:24:00Z,28.2598,-96.7737,0.0,16.1,11111222 
TCOON,ioos:station:TCOON:127:1,2019-03-02T12:24:00Z,28.2598,-96.7737,0.0,15.8,11111222 
TCOON,ioos:station:TCOON:127:1,2019-03-02T13:24:00Z,28.2598,-96.7737,0.0,15.7,11111222 
TCOON,ioos:station:TCOON:127:1,2019-03-02T14:24:00Z,28.2598,-96.7737,0.0,15.6,11111222 
TCOON,ioos:station:TCOON:127:1,2019-03-02T15:24:00Z,28.2598,-96.7737,0.0,15.7,11111222 
TCOON,ioos:station:TCOON:127:1,2019-03-02T16:24:00Z,28.2598,-96.7737,0.0,15.8,11111222 
TCOON,ioos:station:TCOON:127:1,2019-03-02T17:24:00Z,28.2598,-96.7737,0.0,15.9,11111222 
TCOON,ioos:station:TCOON:127:1,2019-03-02T18:24:00Z,28.2598,-96.7737,0.0,16.0,11111222 
TCOON,ioos:station:TCOON:127:1,2019-03-02T19:24:00Z,28.2598,-96.7737,0.0,16.1,11111222 
TCOON,ioos:station:TCOON:127:1,2019-03-02T20:24:00Z,28.2598,-96.7737,0.0,16.2,11111222 
TCOON,ioos:station:TCOON:127:1,2019-03-02T21:24:00Z,28.2598,-96.7737,0.0,16.3,11111222 
TCOON,ioos:station:TCOON:127:1,2019-03-02T22:24:00Z,28.2598,-96.7737,0.0,16.3,11111222 
TCOON,ioos:station:TCOON:127:1,2019-03-02T23:24:00Z,28.2598,-96.7737,0.0,16.4,11111222 
TCOON,ioos:station:TCOON:127:1,2019-03-03T00:24:00Z,28.2598,-96.7737,0.0,16.5,11111222 
TCOON,ioos:station:TCOON:127:1,2019-03-03T01:24:00Z,28.2598,-96.7737,0.0,16.5,11111222 
TCOON,ioos:station:TCOON:127:1,2019-03-03T02:24:00Z,28.2598,-96.7737,0.0,16.5,11111222 
TCOON,ioos:station:TCOON:127:1,2019-03-03T03:24:00Z,28.2598,-96.7737,0.0,16.6,11111222 
TCOON,ioos:station:TCOON:127:1,2019-03-03T04:24:00Z,28.2598,-96.7737,0.0,16.7,11111222 
TCOON,ioos:station:TCOON:127:1,2019-03-03T05:24:00Z,28.2598,-96.7737,0.0,16.6,11111222 
TCOON,ioos:station:TCOON:127:1,2019-03-03T07:24:00Z,28.2598,-96.7737,0.0,16.6,11111222 
TCOON,ioos:station:TCOON:127:1,2019-03-03T08:24:00Z,28.2598,-96.7737,0.0,16.6,11111222 
TCOON,ioos:station:TCOON:127:1,2019-03-03T09:24:00Z,28.2598,-96.7737,0.0,16.7,11111222 
TCOON,ioos:station:TCOON:127:1,2019-03-03T10:24:00Z,28.2598,-96.7737,0.0,16.7,11111222 
TCOON,ioos:station:TCOON:127:1,2019-03-03T11:24:00Z,28.2598,-96.7737,0.0,16.6,11111222 
TCOON,ioos:station:TCOON:127:1,2019-03-03T12:24:00Z,28.2598,-96.7737,0.0,16.6,11111222 
TCOON,ioos:station:TCOON:127:1,2019-03-03T13:24:00Z,28.2598,-96.7737,0.0,16.6,11111222 
TCOON,ioos:station:TCOON:127:1,2019-03-03T14:24:00Z,28.2598,-96.7737,0.0,16.6,11111222 
TCOON,ioos:station:TCOON:127:1,2019-03-03T15:24:00Z,28.2598,-96.7737,0.0,16.5,11111222 
TCOON,ioos:station:TCOON:127:1,2019-03-03T16:24:00Z,28.2598,-96.7737,0.0,16.4,11111222 
TCOON,ioos:station:TCOON:127:1,2019-03-03T17:24:00Z,28.2598,-96.7737,0.0,16.3,11111222 
TCOON,ioos:station:TCOON:127:1,2019-03-03T18:24:00Z,28.2598,-96.7737,0.0,16.3,11111222 
TCOON,ioos:station:TCOON:127:1,2019-03-03T19:24:00Z,28.2598,-96.7737,0.0,16.2,11111222 
TCOON,ioos:station:TCOON:127:1,2019-03-03T20:24:00Z,28.2598,-96.7737,0.0,16.1,11111222 
TCOON,ioos:station:TCOON:127:1,2019-03-03T21:24:00Z,28.2598,-96.7737,0.0,16.0,11111222 
TCOON,ioos:station:TCOON:127:1,2019-03-03T22:24:00Z,28.2598,-96.7737,0.0,15.9,11111222 
TCOON,ioos:station:TCOON:127:1,2019-03-03T23:24:00Z,28.2598,-96.7737,0.0,15.8,11111222 
TCOON,ioos:station:TCOON:127:1,2019-03-04T00:24:00Z,28.2598,-96.7737,0.0,15.7,11111222 
TCOON,ioos:station:TCOON:127:1,2019-03-04T01:24:00Z,28.2598,-96.7737,0.0,15.5,11111222 
TCOON,ioos:station:TCOON:127:1,2019-03-04T02:24:00Z,28.2598,-96.7737,0.0,15.4,11111222 
TCOON,ioos:station:TCOON:127:1,2019-03-04T03:24:00Z,28.2598,-96.7737,0.0,15.2,11111222 
TCOON,ioos:station:TCOON:127:1,2019-03-04T04:24:00Z,28.2598,-96.7737,0.0,15.0,11111222 
TCOON,ioos:station:TCOON:127:1,2019-03-04T05:24:00Z,28.2598,-96.7737,0.0,14.8,11111222 
TCOON,ioos:station:TCOON:127:1,2019-03-04T06:24:00Z,28.2598,-96.7737,0.0,14.6,11111222 
TCOON,ioos:station:TCOON:127:1,2019-03-04T07:24:00Z,28.2598,-96.7737,0.0,14.4,11111222 
TCOON,ioos:station:TCOON:127:1,2019-03-04T08:24:00Z,28.2598,-96.7737,0.0,14.2,11111222 
TCOON,ioos:station:TCOON:127:1,2019-03-04T09:24:00Z,28.2598,-96.7737,0.0,14.0,11111222 
TCOON,ioos:station:TCOON:127:1,2019-03-04T10:24:00Z,28.2598,-96.7737,0.0,13.8,11111222 
TCOON,ioos:station:TCOON:127:1,2019-03-04T11:24:00Z,28.2598,-96.7737,0.0,13.6,11111222 
TCOON,ioos:station:TCOON:127:1,2019-03-04T12:24:00Z,28.2598,-96.7737,0.0,13.4,11111222 
TCOON,ioos:station:TCOON:127:1,2019-03-04T13:24:00Z,28.2598,-96.7737,0.0,13.2,11111222 
TCOON,ioos:station:TCOON:127:1,2019-03-04T14:24:00Z,28.2598,-96.7737,0.0,13.0,11111222 
TCOON,ioos:station:TCOON:127:1,2019-03-04T15:24:00Z,28.2598,-96.7737,0.0,12.8,11111222 
TCOON,ioos:station:TCOON:127:1,2019-03-04T16:24:00Z,28.2598,-96.7737,0.0,12.7,11111222 
TCOON,ioos:station:TCOON:127:1,2019-03-04T17:24:00Z,28.2598,-96.7737,0.0,12.5,11111222 
TCOON,ioos:station:TCOON:127:1,2019-03-04T18:24:00Z,28.2598,-96.7737,0.0,12.3,11111222 
TCOON,ioos:station:TCOON:127:1,2019-03-04T19:24:00Z,28.2598,-96.7737,0.0,12.2,11111222 
TCOON,ioos:station:TCOON:127:1,2019-03-04T20:24:00Z,28.2598,-96.7737,0.0,12.1,11111222 
TCOON,ioos:station:TCOON:127:1,2019-03-04T21:24:00Z,28.2598,-96.7737,0.0,11.9,11111222 
TCOON,ioos:station:TCOON:127:1,2019-03-04T22:24:00Z,28.2598,-96.7737,0.0,11.9,11111222 
TCOON,ioos:station:TCOON:127:1,2019-03-04T23:24:00Z,28.2598,-96.7737,0.0,11.8,11111222 
TCOON,ioos:station:TCOON:127:1,2019-03-05T00:24:00Z,28.2598,-96.7737,0.0,11.5,11111222 
TCOON,ioos:station:TCOON:127:1,2019-03-05T19:24:00Z,28.2598,-96.7737,0.0,9.3,11113222 
TCOON,ioos:station:TCOON:127:1,2019-03-05T20:24:00Z,28.2598,-96.7737,0.0,9.5,11113222 
TCOON,ioos:station:TCOON:127:1,2019-03-05T22:24:00Z,28.2598,-96.7737,0.0,9.8,11113222 
TCOON,ioos:station:TCOON:127:1,2019-03-05T23:24:00Z,28.2598,-96.7737,0.0,9.7,11113222 
TCOON,ioos:station:TCOON:127:1,2019-03-06T00:24:00Z,28.2598,-96.7737,0.0,9.7,11113222 
TCOON,ioos:station:TCOON:127:1,2019-03-06T01:24:00Z,28.2598,-96.7737,0.0,9.6,11113222 
TCOON,ioos:station:TCOON:127:1,2019-03-06T02:24:00Z,28.2598,-96.7737,0.0,9.6,11113222 
TCOON,ioos:station:TCOON:127:1,2019-03-06T03:24:00Z,28.2598,-96.7737,0.0,9.5,11113222 
TCOON,ioos:station:TCOON:127:1,2019-03-06T04:24:00Z,28.2598,-96.7737,0.0,9.4,11113222 
TCOON,ioos:station:TCOON:127:1,2019-03-06T05:24:00Z,28.2598,-96.7737,0.0,9.2,11113222 
TCOON,ioos:station:TCOON:127:1,2019-03-06T06:24:00Z,28.2598,-96.7737,0.0,9.0,11113222 
TCOON,ioos:station:TCOON:127:1,2019-03-06T07:24:00Z,28.2598,-96.7737,0.0,9.0,11113222 
TCOON,ioos:station:TCOON:127:1,2019-03-06T08:24:00Z,28.2598,-96.7737,0.0,8.8,11113222 
TCOON,ioos:station:TCOON:127:1,2019-03-06T09:24:00Z,28.2598,-96.7737,0.0,8.5,11113222 
TCOON,ioos:station:TCOON:127:1,2019-03-06T10:24:00Z,28.2598,-96.7737,0.0,8.5,11113222 
TCOON,ioos:station:TCOON:127:1,2019-03-06T11:24:00Z,28.2598,-96.7737,0.0,8.4,11113222 
TCOON,ioos:station:TCOON:127:1,2019-03-06T12:24:00Z,28.2598,-96.7737,0.0,8.4,11113222 
TCOON,ioos:station:TCOON:127:1,2019-03-06T13:24:00Z,28.2598,-96.7737,0.0,8.3,11113222 
TCOON,ioos:station:TCOON:127:1,2019-03-06T14:24:00Z,28.2598,-96.7737,0.0,8.3,11113222 
TCOON,ioos:station:TCOON:127:1,2019-03-06T15:24:00Z,28.2598,-96.7737,0.0,8.4,11113222 
TCOON,ioos:station:TCOON:127:1,2019-03-06T16:24:00Z,28.2598,-96.7737,0.0,8.7,11113222 
TCOON,ioos:station:TCOON:127:1,2019-03-06T17:24:00Z,28.2598,-96.7737,0.0,8.9,11113222 
TCOON,ioos:station:TCOON:127:1,2019-03-06T18:24:00Z,28.2598,-96.7737,0.0,9.3,11113222 
TCOON,ioos:station:TCOON:127:1,2019-03-06T19:24:00Z,28.2598,-96.7737,0.0,9.4,11113222 
TCOON,ioos:station:TCOON:127:1,2019-03-06T20:24:00Z,28.2598,-96.7737,0.0,9.6,11113222 
TCOON,ioos:station:TCOON:127:1,2019-03-06T21:24:00Z,28.2598,-96.7737,0.0,9.9,11113222 
TCOON,ioos:station:TCOON:127:1,2019-03-06T22:24:00Z,28.2598,-96.7737,0.0,10.1,11111222 
TCOON,ioos:station:TCOON:127:1,2019-03-06T23:24:00Z,28.2598,-96.7737,0.0,9.8,11113222 
TCOON,ioos:station:TCOON:127:1,2019-03-07T00:24:00Z,28.2598,-96.7737,0.0,10.2,11111222 
TCOON,ioos:station:TCOON:127:1,2019-03-07T01:24:00Z,28.2598,-96.7737,0.0,10.1,11111222 
TCOON,ioos:station:TCOON:127:1,2019-03-07T02:24:00Z,28.2598,-96.7737,0.0,10.1,11111222 
TCOON,ioos:station:TCOON:127:1,2019-03-07T03:24:00Z,28.2598,-96.7737,0.0,10.2,11111222 
TCOON,ioos:station:TCOON:127:1,2019-03-07T04:24:00Z,28.2598,-96.7737,0.0,10.4,11111222 
TCOON,ioos:station:TCOON:127:1,2019-03-07T05:24:00Z,28.2598,-96.7737,0.0,10.5,11111222 
TCOON,ioos:station:TCOON:127:1,2019-03-07T06:24:00Z,28.2598,-96.7737,0.0,10.6,11111222 
TCOON,ioos:station:TCOON:127:1,2019-03-07T07:24:00Z,28.2598,-96.7737,0.0,10.6,11111222 
TCOON,ioos:station:TCOON:127:1,2019-03-07T08:24:00Z,28.2598,-96.7737,0.0,10.7,11111222 
TCOON,ioos:station:TCOON:127:1,2019-03-07T09:24:00Z,28.2598,-96.7737,0.0,10.7,11111222 
TCOON,ioos:station:TCOON:127:1,2019-03-07T10:24:00Z,28.2598,-96.7737,0.0,10.7,11111222 
TCOON,ioos:station:TCOON:127:1,2019-03-07T11:24:00Z,28.2598,-96.7737,0.0,10.7,11111222 
TCOON,ioos:station:TCOON:127:1,2019-03-07T12:24:00Z,28.2598,-96.7737,0.0,10.7,11111222 
TCOON,ioos:station:TCOON:127:1,2019-03-07T13:24:00Z,28.2598,-96.7737,0.0,10.8,11111222 
TCOON,ioos:station:TCOON:127:1,2019-03-07T14:24:00Z,28.2598,-96.7737,0.0,10.6,11111222 
TCOON,ioos:station:TCOON:127:1,2019-03-07T15:24:00Z,28.2598,-96.7737,0.0,10.7,11111222 
TCOON,ioos:station:TCOON:127:1,2019-03-07T17:24:00Z,28.2598,-96.7737,0.0,10.7,11111222 
TCOON,ioos:station:TCOON:127:1,2019-03-07T18:24:00Z,28.2598,-96.7737,0.0,10.8,11111222 
TCOON,ioos:station:TCOON:127:1,2019-03-07T19:24:00Z,28.2598,-96.7737,0.0,10.9,11111222 
TCOON,ioos:station:TCOON:127:1,2019-03-07T20:24:00Z,28.2598,-96.7737,0.0,10.9,11111222 
TCOON,ioos:station:TCOON:127:1,2019-03-07T21:24:00Z,28.2598,-96.7737,0.0,11.0,11111222 
TCOON,ioos:station:TCOON:127:1,2019-03-07T22:24:00Z,28.2598,-96.7737,0.0,11.1,11111222 
TCOON,ioos:station:TCOON:127:1,2019-03-07T23:24:00Z,28.2598,-96.7737,0.0,11.1,11111222 
TCOON,ioos:station:TCOON:127:1,2019-03-08T00:24:00Z,28.2598,-96.7737,0.0,11.1,11111222 
TCOON,ioos:station:TCOON:127:1,2019-03-08T01:24:00Z,28.2598,-96.7737,0.0,11.0,11111222 
TCOON,ioos:station:TCOON:127:1,2019-03-08T02:24:00Z,28.2598,-96.7737,0.0,11.1,11111222 
TCOON,ioos:station:TCOON:127:1,2019-03-08T03:24:00Z,28.2598,-96.7737,0.0,11.1,11111222 
TCOON,ioos:station:TCOON:127:1,2019-03-08T04:24:00Z,28.2598,-96.7737,0.0,11.1,11111222 
TCOON,ioos:station:TCOON:127:1,2019-03-08T05:24:00Z,28.2598,-96.7737,0.0,11.2,11111222 
TCOON,ioos:station:TCOON:127:1,2019-03-08T06:24:00Z,28.2598,-96.7737,0.0,11.2,11111222 
TCOON,ioos:station:TCOON:127:1,2019-03-08T07:24:00Z,28.2598,-96.7737,0.0,11.2,11111222 
TCOON,ioos:station:TCOON:127:1,2019-03-08T08:24:00Z,28.2598,-96.7737,0.0,11.2,11111222 
TCOON,ioos:station:TCOON:127:1,2019-03-08T09:24:00Z,28.2598,-96.7737,0.0,11.2,11111222 
TCOON,ioos:station:TCOON:127:1,2019-03-08T10:24:00Z,28.2598,-96.7737,0.0,11.4,11111222 
TCOON,ioos:station:TCOON:127:1,2019-03-08T11:24:00Z,28.2598,-96.7737,0.0,11.3,11111222 
TCOON,ioos:station:TCOON:127:1,2019-03-08T12:24:00Z,28.2598,-96.7737,0.0,11.3,11111222 
TCOON,ioos:station:TCOON:127:1,2019-03-08T13:24:00Z,28.2598,-96.7737,0.0,11.2,11111222 
TCOON,ioos:station:TCOON:127:1,2019-03-08T15:42:00Z,28.2598,-96.7737,0.0,11.1,11111222 
TCOON,ioos:station:TCOON:127:1,2019-03-08T16:36:00Z,28.2598,-96.7737,0.0,11.1,11111222 
TCOON,ioos:station:TCOON:127:1,2019-03-08T17:24:00Z,28.2598,-96.7737,0.0,11.3,11111222 
TCOON,ioos:station:TCOON:127:1,2019-03-08T18:24:00Z,28.2598,-96.7737,0.0,11.4,11111222 
TCOON,ioos:station:TCOON:127:1,2019-03-08T19:24:00Z,28.2598,-96.7737,0.0,12.0,11111222 
TCOON,ioos:station:TCOON:127:1,2019-03-08T20:24:00Z,28.2598,-96.7737,0.0,11.5,11111222 
TCOON,ioos:station:TCOON:127:1,2019-03-08T21:24:00Z,28.2598,-96.7737,0.0,11.6,11111222 
TCOON,ioos:station:TCOON:127:1,2019-03-08T22:24:00Z,28.2598,-96.7737,0.0,12.4,11111222 
TCOON,ioos:station:TCOON:127:1,2019-03-09T00:24:00Z,28.2598,-96.7737,0.0,13.5,11111222 
TCOON,ioos:station:TCOON:127:1,2019-03-09T01:24:00Z,28.2598,-96.7737,0.0,13.7,11111222 
TCOON,ioos:station:TCOON:127:1,2019-03-09T02:24:00Z,28.2598,-96.7737,0.0,13.7,11111222 
TCOON,ioos:station:TCOON:127:1,2019-03-09T03:24:00Z,28.2598,-96.7737,0.0,13.6,11111222 
TCOON,ioos:station:TCOON:127:1,2019-03-09T04:24:00Z,28.2598,-96.7737,0.0,13.6,11111222 
TCOON,ioos:station:TCOON:127:1,2019-03-09T05:24:00Z,28.2598,-96.7737,0.0,13.4,11111222 
TCOON,ioos:station:TCOON:127:1,2019-03-09T06:24:00Z,28.2598,-96.7737,0.0,13.3,11111222 
TCOON,ioos:station:TCOON:127:1,2019-03-09T07:24:00Z,28.2598,-96.7737,0.0,13.4,11111222 
TCOON,ioos:station:TCOON:127:1,2019-03-09T08:24:00Z,28.2598,-96.7737,0.0,13.7,11111222 
TCOON,ioos:station:TCOON:127:1,2019-03-09T09:24:00Z,28.2598,-96.7737,0.0,13.7,11111222 
TCOON,ioos:station:TCOON:127:1,2019-03-09T10:24:00Z,28.2598,-96.7737,0.0,13.7,11111222 
TCOON,ioos:station:TCOON:127:1,2019-03-09T11:24:00Z,28.2598,-96.7737,0.0,13.3,11111222 
TCOON,ioos:station:TCOON:127:1,2019-03-09T13:24:00Z,28.2598,-96.7737,0.0,13.1,11111222 
TCOON,ioos:station:TCOON:127:1,2019-03-09T14:24:00Z,28.2598,-96.7737,0.0,13.2,11111222 
TCOON,ioos:station:TCOON:127:1,2019-03-09T15:24:00Z,28.2598,-96.7737,0.0,13.9,11111222 
TCOON,ioos:station:TCOON:127:1,2019-03-09T16:24:00Z,28.2598,-96.7737,0.0,13.9,11111222 
TCOON,ioos:station:TCOON:127:1,2019-03-09T17:24:00Z,28.2598,-96.7737,0.0,14.1,11111222 
TCOON,ioos:station:TCOON:127:1,2019-03-09T18:24:00Z,28.2598,-96.7737,0.0,13.6,11111222 
TCOON,ioos:station:TCOON:127:1,2019-03-09T19:24:00Z,28.2598,-96.7737,0.0,13.3,11111222 
TCOON,ioos:station:TCOON:127:1,2019-03-09T20:24:00Z,28.2598,-96.7737,0.0,13.1,11111222 
TCOON,ioos:station:TCOON:127:1,2019-03-09T21:24:00Z,28.2598,-96.7737,0.0,13.8,11111222 
TCOON,ioos:station:TCOON:127:1,2019-03-09T22:24:00Z,28.2598,-96.7737,0.0,13.8,11111222 
TCOON,ioos:station:TCOON:127:1,2019-03-09T23:24:00Z,28.2598,-96.7737,0.0,13.8,11111222 
TCOON,ioos:station:TCOON:127:1,2019-03-10T00:24:00Z,28.2598,-96.7737,0.0,13.9,11111222 
TCOON,ioos:station:TCOON:127:1,2019-03-10T01:24:00Z,28.2598,-96.7737,0.0,13.8,11111222 
TCOON,ioos:station:TCOON:127:1,2019-03-10T02:24:00Z,28.2598,-96.7737,0.0,14.2,11111222 
TCOON,ioos:station:TCOON:127:1,2019-03-10T03:24:00Z,28.2598,-96.7737,0.0,14.1,11111222 
TCOON,ioos:station:TCOON:127:1,2019-03-10T04:24:00Z,28.2598,-96.7737,0.0,14.0,11111222 
TCOON,ioos:station:TCOON:127:1,2019-03-10T05:24:00Z,28.2598,-96.7737,0.0,14.5,11111222 
TCOON,ioos:station:TCOON:127:1,2019-03-10T06:24:00Z,28.2598,-96.7737,0.0,15.5,11111222 
TCOON,ioos:station:TCOON:127:1,2019-03-10T07:24:00Z,28.2598,-96.7737,0.0,15.3,11111222 
TCOON,ioos:station:TCOON:127:1,2019-03-10T08:24:00Z,28.2598,-96.7737,0.0,15.3,11111222 
TCOON,ioos:station:TCOON:127:1,2019-03-10T09:24:00Z,28.2598,-96.7737,0.0,15.4,11111222 
TCOON,ioos:station:TCOON:127:1,2019-03-10T10:24:00Z,28.2598,-96.7737,0.0,15.4,11111222 
TCOON,ioos:station:TCOON:127:1,2019-03-10T11:24:00Z,28.2598,-96.7737,0.0,15.7,11111222 
TCOON,ioos:station:TCOON:127:1,2019-03-10T12:24:00Z,28.2598,-96.7737,0.0,15.6,11111222 
TCOON,ioos:station:TCOON:127:1,2019-03-10T13:24:00Z,28.2598,-96.7737,0.0,15.5,11111222 
TCOON,ioos:station:TCOON:127:1,2019-03-10T14:24:00Z,28.2598,-96.7737,0.0,15.3,11111222 
TCOON,ioos:station:TCOON:127:1,2019-03-10T15:24:00Z,28.2598,-96.7737,0.0,15.4,11111222 
TCOON,ioos:station:TCOON:127:1,2019-03-10T16:24:00Z,28.2598,-96.7737,0.0,15.6,11111222 
TCOON,ioos:station:TCOON:127:1,2019-03-10T17:24:00Z,28.2598,-96.7737,0.0,15.7,11111222 
TCOON,ioos:station:TCOON:127:1,2019-03-10T18:24:00Z,28.2598,-96.7737,0.0,15.8,11111222 
TCOON,ioos:station:TCOON:127:1,2019-03-10T19:24:00Z,28.2598,-96.7737,0.0,16.0,11111222 
TCOON,ioos:station:TCOON:127:1,2019-03-10T20:24:00Z,28.2598,-96.7737,0.0,16.0,11111222 
TCOON,ioos:station:TCOON:127:1,2019-03-10T21:24:00Z,28.2598,-96.7737,0.0,17.0,11111222 
TCOON,ioos:station:TCOON:127:1,2019-03-11T03:24:00Z,28.2598,-96.7737,0.0,17.7,11111222 
TCOON,ioos:station:TCOON:127:1,2019-03-11T04:24:00Z,28.2598,-96.7737,0.0,17.7,11111222 
TCOON,ioos:station:TCOON:127:1,2019-03-11T05:24:00Z,28.2598,-96.7737,0.0,17.5,11111222 
TCOON,ioos:station:TCOON:127:1,2019-03-11T06:24:00Z,28.2598,-96.7737,0.0,17.4,11111222 
TCOON,ioos:station:TCOON:127:1,2019-03-11T07:24:00Z,28.2598,-96.7737,0.0,17.3,11111222 
TCOON,ioos:station:TCOON:127:1,2019-03-11T08:24:00Z,28.2598,-96.7737,0.0,17.4,11111222 
TCOON,ioos:station:TCOON:127:1,2019-03-11T09:24:00Z,28.2598,-96.7737,0.0,17.5,11111222 
TCOON,ioos:station:TCOON:127:1,2019-03-11T10:24:00Z,28.2598,-96.7737,0.0,17.6,11111222 
TCOON,ioos:station:TCOON:127:1,2019-03-11T11:24:00Z,28.2598,-96.7737,0.0,17.7,11111222 
TCOON,ioos:station:TCOON:127:1,2019-03-11T12:24:00Z,28.2598,-96.7737,0.0,17.8,11111222 
TCOON,ioos:station:TCOON:127:1,2019-03-11T13:24:00Z,28.2598,-96.7737,0.0,17.8,11111222 
TCOON,ioos:station:TCOON:127:1,2019-03-11T14:24:00Z,28.2598,-96.7737,0.0,17.7,11111222 
TCOON,ioos:station:TCOON:127:1,2019-03-11T15:24:00Z,28.2598,-96.7737,0.0,17.9,11111222 
TCOON,ioos:station:TCOON:127:1,2019-03-11T16:24:00Z,28.2598,-96.7737,0.0,18.0,11111222 
TCOON,ioos:station:TCOON:127:1,2019-03-11T17:24:00Z,28.2598,-96.7737,0.0,18.2,11111222 
TCOON,ioos:station:TCOON:127:1,2019-03-11T18:24:00Z,28.2598,-96.7737,0.0,18.2,11111222 
TCOON,ioos:station:TCOON:127:1,2019-03-11T19:24:00Z,28.2598,-96.7737,0.0,18.4,11111222 
TCOON,ioos:station:TCOON:127:1,2019-03-11T20:24:00Z,28.2598,-96.7737,0.0,18.6,11111222 
TCOON,ioos:station:TCOON:127:1,2019-03-11T21:24:00Z,28.2598,-96.7737,0.0,18.6,11111222 
TCOON,ioos:station:TCOON:127:1,2019-03-11T22:24:00Z,28.2598,-96.7737,0.0,18.9,11111222 
TCOON,ioos:station:TCOON:127:1,2019-03-11T23:24:00Z,28.2598,-96.7737,0.0,18.9,11111222 
TCOON,ioos:station:TCOON:127:1,2019-03-12T00:24:00Z,28.2598,-96.7737,0.0,18.9,11111222 
TCOON,ioos:station:TCOON:127:1,2019-03-12T01:24:00Z,28.2598,-96.7737,0.0,18.7,11111222 
TCOON,ioos:station:TCOON:127:1,2019-03-12T02:24:00Z,28.2598,-96.7737,0.0,18.8,11111222 
TCOON,ioos:station:TCOON:127:1,2019-03-12T03:24:00Z,28.2598,-96.7737,0.0,18.7,11111222 
TCOON,ioos:station:TCOON:127:1,2019-03-12T04:24:00Z,28.2598,-96.7737,0.0,18.7,11111222 
TCOON,ioos:station:TCOON:127:1,2019-03-12T05:24:00Z,28.2598,-96.7737,0.0,18.6,11111222 
TCOON,ioos:station:TCOON:127:1,2019-03-12T06:24:00Z,28.2598,-96.7737,0.0,18.5,11111222 
TCOON,ioos:station:TCOON:127:1,2019-03-12T07:24:00Z,28.2598,-96.7737,0.0,18.5,11111222 
TCOON,ioos:station:TCOON:127:1,2019-03-12T08:24:00Z,28.2598,-96.7737,0.0,18.6,11111222 
TCOON,ioos:station:TCOON:127:1,2019-03-12T09:24:00Z,28.2598,-96.7737,0.0,18.7,11111222 
TCOON,ioos:station:TCOON:127:1,2019-03-12T10:24:00Z,28.2598,-96.7737,0.0,18.7,11111222 
TCOON,ioos:station:TCOON:127:1,2019-03-12T11:24:00Z,28.2598,-96.7737,0.0,18.8,11111222 
TCOON,ioos:station:TCOON:127:1,2019-03-12T12:24:00Z,28.2598,-96.7737,0.0,18.9,11111222 
TCOON,ioos:station:TCOON:127:1,2019-03-12T13:24:00Z,28.2598,-96.7737,0.0,18.9,11111222 
TCOON,ioos:station:TCOON:127:1,2019-03-12T14:24:00Z,28.2598,-96.7737,0.0,19.0,11111222 
TCOON,ioos:station:TCOON:127:1,2019-03-12T15:24:00Z,28.2598,-96.7737,0.0,19.2,11111222 
TCOON,ioos:station:TCOON:127:1,2019-03-12T16:24:00Z,28.2598,-96.7737,0.0,19.6,11111222 
TCOON,ioos:station:TCOON:127:1,2019-03-12T17:24:00Z,28.2598,-96.7737,0.0,19.6,11111222 
TCOON,ioos:station:TCOON:127:1,2019-03-12T18:24:00Z,28.2598,-96.7737,0.0,19.8,11111222 
TCOON,ioos:station:TCOON:127:1,2019-03-12T19:24:00Z,28.2598,-96.7737,0.0,19.9,11111222 
TCOON,ioos:station:TCOON:127:1,2019-03-12T20:24:00Z,28.2598,-96.7737,0.0,20.1,11111222 
TCOON,ioos:station:TCOON:127:1,2019-03-12T21:24:00Z,28.2598,-96.7737,0.0,20.2,11111222 
TCOON,ioos:station:TCOON:127:1,2019-03-12T22:24:00Z,28.2598,-96.7737,0.0,20.2,11111222 
TCOON,ioos:station:TCOON:127:1,2019-03-12T23:24:00Z,28.2598,-96.7737,0.0,20.2,11111222 
TCOON,ioos:station:TCOON:127:1,2019-03-13T00:24:00Z,28.2598,-96.7737,0.0,20.3,11111222 
TCOON,ioos:station:TCOON:127:1,2019-03-13T01:24:00Z,28.2598,-96.7737,0.0,20.3,11111222 
TCOON,ioos:station:TCOON:127:1,2019-03-13T02:24:00Z,28.2598,-96.7737,0.0,20.4,11111222 
TCOON,ioos:station:TCOON:127:1,2019-03-13T03:24:00Z,28.2598,-96.7737,0.0,20.4,11111222 
TCOON,ioos:station:TCOON:127:1,2019-03-13T04:24:00Z,28.2598,-96.7737,0.0,20.1,11111222 
TCOON,ioos:station:TCOON:127:1,2019-03-13T05:24:00Z,28.2598,-96.7737,0.0,20.0,11111222 
TCOON,ioos:station:TCOON:127:1,2019-03-13T06:24:00Z,28.2598,-96.7737,0.0,20.0,11111222 
TCOON,ioos:station:TCOON:127:1,2019-03-13T07:24:00Z,28.2598,-96.7737,0.0,19.8,11111222 
TCOON,ioos:station:TCOON:127:1,2019-03-13T08:24:00Z,28.2598,-96.7737,0.0,19.6,11111222 
TCOON,ioos:station:TCOON:127:1,2019-03-13T09:24:00Z,28.2598,-96.7737,0.0,19.5,11111222 
TCOON,ioos:station:TCOON:127:1,2019-03-13T10:24:00Z,28.2598,-96.7737,0.0,19.1,11111222 
TCOON,ioos:station:TCOON:127:1,2019-03-13T11:24:00Z,28.2598,-96.7737,0.0,19.4,11111222 
TCOON,ioos:station:TCOON:127:1,2019-03-13T12:24:00Z,28.2598,-96.7737,0.0,19.3,11111222 
TCOON,ioos:station:TCOON:127:1,2019-03-13T13:24:00Z,28.2598,-96.7737,0.0,19.5,11111222 
TCOON,ioos:station:TCOON:127:1,2019-03-13T14:24:00Z,28.2598,-96.7737,0.0,19.5,11111222 